Location: Pedholt
(56.0260°N, 10.2097°E)
Time: 22:30:33
(UTC+00:00)

A-11 Canister half - Pass Details

Date: 01 August 2021
Orbit: 1515 x 1685 km, 47.2° (Epoch: 19 September)

Event Time Altitude Azimuth Distance (km) Brightness Sun altitude
Rises 16:50:42 0° 227° (SW) 4,797 12.3 19.5°
Reaches altitude 10° 16:53:59 10° 220° (SW) 3,837 11.7 19.1°
Maximum altitude 17:02:53 41° 155° (SSE) 2,255 9.9 17.8°
Drops below altitude 10° 17:12:01 10° 91° (E) 3,943 10.6 16.6°
Sets 17:15:26 0° 84° (E) 4,940 11.1 16.1°
